Regional Weather Roundup
Issued by NWS

Home | Current Version | Previous Version | Text Only | Print | Product List | Glossary Off
Versions: 1 2 3 4 5 6 7 8 9 10 11 12 13 14 15 16 17 18 19 20 21 22 23 24 25 26 27 28 29 30 31 32 33 34 35 36 37 38 39 40 41 42 43 44 45 46 47 48 49 50

000
ASUS43 KFSD 232010
RWRSD

WEATHER ROUNDUP FOR SOUTH DAKOTA
NATIONAL WEATHER SERVICE SIOUX FALLS SD
300 PM CDT TUE AUG 23 2016

NOTE: "FAIR" INDICATES FEW OR NO CLOUDS BELOW 12,000 FEET WITH NO
SIGNIFICANT WEATHER AND/OR OBSTRUCTIONS TO VISIBILITY.


SDZ001>005-009-010-012>017-232100-
NORTHWEST AND NORTH CENTRAL SOUTH DAKOTA

CITY           SKY/WX    TMP DP  RH WIND       PRES   REMARKS
BUFFALO          N/A     77  34  21 NW21G35   29.88R
FAITH            N/A     83  30  14 NW30      29.85R
MOBRIDGE       PTSUNNY   84  53  34 N21G29    29.75R
$$

SDZ012>016-024>037-041>051-057-063-072>074-232100-
SOUTHWEST AND SOUTH CENTRAL SOUTH DAKOTA

CITY           SKY/WX    TMP DP  RH WIND       PRES   REMARKS
RAPID CTY ARPT MOSUNNY   82  34  17 NW21G35   29.94R
PIERRE         SUNNY     85  57  38 N21G29    29.74S
CUSTER         CLOUDY    79  24  13 W8        30.04R
ELLSWORTH AFB  SUNNY     79  33  19 NW23G33   29.67F
PHILIP         SUNNY     86  39  19 NW23G36   29.83R
PINE RIDGE     SUNNY     82  36  19 N22G31    29.93R
WINNER         FAIR      88  52  29 W15G25    29.77R
$$

SDZ004>011-016>023-039-040-232100-
NORTHEAST SOUTH DAKOTA

CITY           SKY/WX    TMP DP  RH WIND       PRES   REMARKS
ABERDEEN       SUNNY     87  64  46 S22G33    29.71R
WATERTOWN      SUNNY     80  64  58 S22G37    29.78F
BROOKINGS      CLOUDY    75  67  76 S17G25    29.82F
SISSETON         N/A     86  65  49 S21G30    29.74R
$$

SDZ017-020-022-023-036>040-048>070-232100-
SOUTHEAST SOUTH DAKOTA

CITY           SKY/WX    TMP DP  RH WIND       PRES   REMARKS
SIOUX FALLS    CLOUDY    73  68  84 S12       29.82F
HURON          MOSUNNY   83  68  60 S15G25    29.73S
CHAMBERLAIN    PTSUNNY   91  68  46 W12G18    29.73S
MITCHELL       CLOUDY    78  68  71 S18G26    29.78R
YANKTON        CLOUDY    73  64  73 SE14      29.79F
$$

ABBREVIATIONS USED IN REMARKS
   TC - TEMPERATURE IN CELSIUS
  WCI - WIND CHILL INDEX
   HX - HEAT INDEX
  VSB - VISIBILITY





USA.gov is the U.S. government's official web portal to all federal, state and local government web resources and services.